Dati Storici

Data ora Umidita' aria (%) Temperatura aria (°C) Rad globale (W/m²) Gonioanemometro (°) Tacoanemometro (m/s) Pioggia (mm)
29-06-2020 05:30 97.6 % 22.196 30.529 1.503 0 0
29-06-2020 05:20 97.6 % 21.992 51.787 0.743 0 0
29-06-2020 05:10 97.6 % 22.053 0.527 1.552 0 0
29-06-2020 05:00 97.6 % 21.906 13.919 0.895 0 0
29-06-2020 04:50 97.6 % 21.821 16.725 0.916 0 0
29-06-2020 04:40 97.6 % 21.7 -0.155 1.188 0 0
29-06-2020 04:30 97.6 % 21.704 15.567 1.198 0 0
29-06-2020 04:20 97.6 % 21.749 48.525 1.041 0 0
29-06-2020 04:10 97.6 % 21.924 34.681 -0.02 0 0
29-06-2020 04:00 97.6 % 21.964 347.304 -0.018 0 0
29-06-2020 03:50 97.6 % 21.973 49.265 0.491 0 0
29-06-2020 03:40 97.6 % 22.061 24.253 2.041 0 0
29-06-2020 03:30 97.6 % 22.135 20.621 1.364 0 0
29-06-2020 03:20 97.6 % 22.205 18.115 1.332 0 0
29-06-2020 03:10 97.5 % 22.267 23.126 0.929 0 0
29-06-2020 03:00 97.5 % 22.33 39.685 1.884 0 0
29-06-2020 02:50 97.5 % 22.37 60.687 1.537 0 0
29-06-2020 02:40 97.5 % 22.474 39.593 2.338 0 0
29-06-2020 02:30 97.5 % 22.617 12.654 0.415 0 0
29-06-2020 02:20 97.5 % 22.704 84.405 -0.024 0 0

I dati sono presentati in modo automatico a scopo informativo. In seguito a verifica i dati possono subire modifiche o essere invalidati e non riportati negli archivi definitivi.